DMSP 5D-2 F13 DEB, 40490

Orbit data source: Space-Track

DMSP 5D-2 F13 DEB, 40490 is space debris in SSO originally from a launch on Fri, 24 Mar 1995 UTC launched from the Air Force Western Test Range (AFWTR). Debris objects in space refer to the collection of defunct objects orbiting the Earth. Examples of debris include non-operational satellites, rocket bodies, and fragments generated from explosions, collisions, or faulty payload assembly.

Loading next visibility...
Identifier
40490, 1995-015CD
Orbit
SSO
Country
Flag of USUS
Related business
Manufacturer
Unknown
Mission
Spacecraft
Bus & Motor
Unknown
Mass
Unknown
Launch date (UTC)
1995-03-24 (31 years ago)
Launch vehicle
Unknown
Launch site
Air Force Western Test Range (AFWTR)
Object type
Payload
Rocket body
Debris
Shape & HBR
Unknown shape, 0.1 m
Radar Cross Section
Small (<0.1 m²)

Expand to show TLE details & history
Last TLE update: 1 day ago

TLE from 1 day ago
0 DMSP 5D-2 F13 DEB
1 40490U 95015CD  25287.64687236  .00002971  00000-0  21887-2 0  9990
2 40490  98.7621  72.4190 0159516 127.8579 233.7135 13.90367186534494
Epoch: 2025-10-14T15:31Z
TLE epoch observation values (Epoch: 2025-10-14T15:31:29.771Z)
Latitude
-0.00009°
Longitude
176.11266°
Altitude
1,000.39 km
Speed
7.316 km/s
True Right ascension
04h 49m 40s
True Declination
0° 00' 00"
Sunlit
Object was in full shadow at epoch
Visualization orbit readout
Latitude
Unknown
Longitude
Unknown
Altitude
Unknown
Speed
Unknown
Apparent Right ascension
Unknown
Apparent Declination
Unknown
Sunlit
N/A
Visualization observer readout
Local Sidereal Time
12:46:26
Azimuth
Unknown
Elevation
Unknown
Doppler factor
Unknown
Orbital elements
Apogee altitude
1,041.034 km
Perigee altitude
808.055 km
Semi-major axis
7,302.681 km
Eccentricity
0.01595
Inclination
98.7621°
RAAN
72.419°
Arg. of periapsis
127.8579°
True anomaly
232.25742°
Mean anomaly
233.7135°
Eccentric anomaly
232.98374°
Mean motion
3.47792 °/min
Orbital period
103.51 mins
BSTAR
0.0021887

Documentation

Showing up to 5 results
|